Weather History for Plant City, FL

Change the Weather History Date:

Friday, May 9, 2014

  Actual Average Record
Temperature  
Mean Temperature 81 °F -  
Max Temperature 91 °F 87 °F 96 °F (1955)
Min Temperature 71 °F 64 °F 49 °F (1960)
Cooling Degree Days 16    
Growing Degree Days 31 (Base 50)    
Moisture  
Dew Point 61 °F    
Average Humidity 51    
Maximum Humidity 100    
Minimum Humidity 20    
Precipitation  
Precipitation 0.00 in - - ()
Sea Level Pressure  
Sea Level Pressure 30.16 in    
Wind  
Wind Speed 7 mph (SE)    
Max Wind Speed 13 mph    
Max Gust Speed 21 mph    
Visibility 10 miles    
Events      
Averages and records for this station are not official NWS values.
T = Trace of Precipitation, MM = Missing Value Source: NWS Daily Summary

Daily Weather History Graph

Daily Weather History Graph

Search for Another Location

Airport:

Trip Planner

Search our weather history database for the weather conditions in past years. The results will help you decide how hot, cold, wet, or windy it might be!

Date:

Astronomy

May. 09, 2014 Rise Set
Actual Time 6:42 AM EDT 8:07 PM EDT
Civil Twilight 6:17 AM EDT 8:33 PM EDT
Nautical Twilight 5:47 AM EDT 9:03 PM EDT
Astronomical Twilight 5:16 AM EDT 9:34 PM EDT
Moon 3:29 PM EDT (5/9) 3:16 AM EDT (5/9)
Length of Visible Light 14h 15m
Length of Day
13h 25m
Waxing Gibbous, 73% of the Moon is Illuminated
May 9
Waxing Gibbous
May 14
Full
May 21
Last Quarter
May 28
New
Jun 5
First Quarter

Hourly Weather History & Observations

Time (EDT) Temp. Heat Index Dew Point Humidity Pressure Visibility Wind Dir Wind Speed Gust Speed Precip Events Conditions
12:15 AM 75.2 °F - 69.8 °F 83% 30.20 in 10.0 mi ESE 6.9 mph - N/A   Clear
12:35 AM 75.2 °F - 69.8 °F 83% 30.20 in 10.0 mi ESE 5.8 mph - N/A   Clear
12:55 AM 75.2 °F - 71.6 °F 89% 30.19 in 10.0 mi ESE 5.8 mph - N/A   Clear
1:15 AM 75.2 °F - 71.6 °F 89% 30.19 in 10.0 mi ESE 6.9 mph - N/A   Clear
1:35 AM 75.2 °F - 71.6 °F 89% 30.18 in 10.0 mi ESE 9.2 mph - N/A   Clear
1:55 AM 75.2 °F - 73.4 °F 94% 30.17 in 10.0 mi ESE 6.9 mph - N/A   Clear
2:15 AM 73.4 °F - 73.4 °F 100% 30.17 in 10.0 mi ESE 9.2 mph - N/A   Clear
2:35 AM 73.4 °F - 73.4 °F 100% 30.17 in 10.0 mi ESE 6.9 mph - N/A   Clear
2:55 AM 73.4 °F - - N/A% 30.16 in 10.0 mi ESE 5.8 mph - N/A   Clear
3:15 AM 73.4 °F - - N/A% 30.16 in 10.0 mi ESE 4.6 mph - N/A   Clear
3:35 AM 73.4 °F - - N/A% 30.16 in 10.0 mi ESE 4.6 mph - N/A   Clear
3:55 AM 71.6 °F - - N/A% 30.16 in 10.0 mi ESE 3.5 mph - N/A   Clear
4:15 AM 71.6 °F - - N/A% 30.16 in 10.0 mi ESE 4.6 mph - N/A   Clear
4:35 AM 71.6 °F - - N/A% 30.17 in 10.0 mi ESE 3.5 mph - N/A   Clear
4:55 AM 71.6 °F - - N/A% 30.17 in 10.0 mi ESE 4.6 mph - N/A   Clear
5:15 AM 71.6 °F - - N/A% 30.17 in 10.0 mi ESE 3.5 mph - N/A   Clear
5:35 AM 71.6 °F - - N/A% 30.17 in 10.0 mi ESE 3.5 mph - N/A   Clear
5:55 AM 71.6 °F - - N/A% 30.17 in 7.0 mi East 3.5 mph - N/A   Clear
6:15 AM 71.6 °F - - N/A% 30.17 in 10.0 mi ESE 5.8 mph - N/A   Clear
6:35 AM 71.6 °F - - N/A% 30.18 in 10.0 mi ESE 5.8 mph - N/A   Clear
6:55 AM 71.6 °F - - N/A% 30.19 in 7.0 mi ESE 6.9 mph - N/A   Clear
7:15 AM 71.6 °F - - N/A% 30.20 in 10.0 mi SE 8.1 mph - N/A   Clear
7:35 AM 71.6 °F - - N/A% 30.20 in 10.0 mi ESE 6.9 mph - N/A   Clear
7:55 AM 73.4 °F - - N/A% 30.20 in 10.0 mi ESE 8.1 mph - N/A   Clear
8:15 AM 75.2 °F - - N/A% 30.21 in 10.0 mi ESE 8.1 mph - N/A   Clear
8:35 AM 77.0 °F - 73.4 °F 89% 30.21 in 10.0 mi SE 9.2 mph - N/A   Clear
8:55 AM 78.8 °F - 71.6 °F 78% 30.21 in 10.0 mi SE 9.2 mph - N/A   Clear
9:15 AM 78.8 °F - 71.6 °F 78% 30.21 in 10.0 mi ESE 10.4 mph 16.1 mph N/A   Clear
9:35 AM 80.6 °F 84.6 °F 71.6 °F 74% 30.21 in 10.0 mi SE 11.5 mph 17.3 mph N/A   Clear
9:55 AM 80.6 °F 83.9 °F 69.8 °F 70% 30.21 in 10.0 mi SSE 12.7 mph 18.4 mph N/A   Scattered Clouds
10:15 AM 82.4 °F 85.4 °F 68.0 °F 62% 30.21 in 10.0 mi SSE 11.5 mph 20.7 mph N/A   Scattered Clouds
10:35 AM 84.2 °F 86.6 °F 66.2 °F 55% 30.21 in 10.0 mi SSE 10.4 mph 18.4 mph N/A   Mostly Cloudy
10:55 AM 82.4 °F 84.6 °F 66.2 °F 58% 30.21 in 10.0 mi SE 12.7 mph - N/A   Scattered Clouds
11:15 AM 84.2 °F 86.6 °F 66.2 °F 55% 30.22 in 10.0 mi SE 10.4 mph 16.1 mph N/A   Scattered Clouds
11:35 AM 86.0 °F 88.2 °F 66.2 °F 51% 30.21 in 10.0 mi SE 12.7 mph 17.3 mph N/A   Scattered Clouds
12:15 PM 86.0 °F 87.3 °F 64.4 °F 48% 30.21 in 10.0 mi SSE 9.2 mph - N/A   Scattered Clouds
12:35 PM 87.8 °F 88.5 °F 62.6 °F 43% 30.20 in 10.0 mi SE 12.7 mph - N/A   Scattered Clouds
12:55 PM 87.8 °F 88.5 °F 62.6 °F 43% 30.19 in 10.0 mi ESE 6.9 mph 17.3 mph N/A   Clear
1:15 PM 87.8 °F 87.6 °F 60.8 °F 40% 30.18 in 10.0 mi SE 9.2 mph - N/A   Clear
1:35 PM 89.6 °F 90.1 °F 62.6 °F 40% 30.17 in 10.0 mi SE 6.9 mph 16.1 mph N/A   Clear
1:55 PM 89.6 °F 90.1 °F 62.6 °F 40% 30.17 in 10.0 mi ESE 10.4 mph - N/A   Clear
2:15 PM 89.6 °F 89.5 °F 60.8 °F 38% 30.16 in 10.0 mi East 8.1 mph - N/A   Clear
2:35 PM 89.6 °F 88.9 °F 59.0 °F 36% 30.15 in 10.0 mi SE 5.8 mph 10.4 mph N/A   Clear
2:55 PM 91.4 °F 90.7 °F 59.0 °F 34% 30.14 in 10.0 mi SSE 10.4 mph - N/A   Scattered Clouds
3:15 PM 89.6 °F 88.9 °F 59.0 °F 36% 30.14 in 10.0 mi ESE 10.4 mph 16.1 mph N/A   Scattered Clouds
3:35 PM 91.4 °F 90.7 °F 59.0 °F 34% 30.13 in 10.0 mi ESE 10.4 mph 17.3 mph N/A   Clear
3:55 PM 91.4 °F 89.1 °F 53.6 °F 28% 30.12 in 10.0 mi SE 10.4 mph 17.3 mph N/A   Clear
4:15 PM 91.4 °F 89.4 °F 55.4 °F 29% 30.11 in 10.0 mi SE 10.4 mph - N/A   Clear
4:35 PM 91.4 °F 89.4 °F 55.4 °F 29% 30.10 in 10.0 mi ESE 11.5 mph 16.1 mph N/A   Clear
4:55 PM 89.6 °F - 51.8 °F 27% 30.10 in 10.0 mi SE 9.2 mph - N/A   Clear
5:15 PM 91.4 °F - 50.0 °F 24% 30.10 in 10.0 mi ESE 12.7 mph 16.1 mph N/A   Clear
5:35 PM 91.4 °F - 48.2 °F 23% 30.10 in 10.0 mi SE 9.2 mph 16.1 mph N/A   Clear
5:55 PM 91.4 °F - 44.6 °F 20% 30.10 in 10.0 mi SE 10.4 mph - N/A   Clear
6:15 PM 91.4 °F - 44.6 °F 20% 30.09 in 10.0 mi SE 11.5 mph 16.1 mph N/A   Clear
6:35 PM 89.6 °F - 46.4 °F 22% 30.10 in 10.0 mi SE 9.2 mph - N/A   Clear
6:55 PM 89.6 °F - 46.4 °F 22% 30.09 in 10.0 mi SSE 6.9 mph - N/A   Clear
7:15 PM 87.8 °F - 46.4 °F 24% 30.09 in 10.0 mi SSE 5.8 mph - N/A   Clear
7:35 PM 87.8 °F - 48.2 °F 25% 30.09 in 10.0 mi SE 5.8 mph - N/A   Clear
7:55 PM 86.0 °F - 48.2 °F 27% 30.10 in 10.0 mi SSE 5.8 mph - N/A   Clear
8:15 PM 84.2 °F - 48.2 °F 29% 30.10 in 10.0 mi SE 4.6 mph - N/A   Clear
8:35 PM 82.4 °F - 50.0 °F 32% 30.11 in 10.0 mi SE 4.6 mph - N/A   Clear
8:55 PM 80.6 °F 80.3 °F 53.6 °F 39% 30.11 in 10.0 mi SE 4.6 mph - N/A   Clear
9:15 PM 80.6 °F 80.3 °F 53.6 °F 39% 30.11 in 10.0 mi SE 5.8 mph - N/A   Clear
9:35 PM 78.8 °F - 53.6 °F 42% 30.11 in 10.0 mi SE 5.8 mph - N/A   Clear
9:55 PM 78.8 °F - 55.4 °F 44% 30.12 in 10.0 mi East 9.2 mph - N/A   Clear
10:15 PM 78.8 °F - 57.2 °F 47% 30.12 in 10.0 mi East 8.1 mph - N/A   Clear
10:35 PM 78.8 °F - 60.8 °F 54% 30.13 in 10.0 mi East 8.1 mph - N/A   Clear
10:55 PM 77.0 °F - 64.4 °F 65% 30.13 in 10.0 mi ESE 8.1 mph - N/A   Clear
11:15 PM 77.0 °F - 66.2 °F 69% 30.13 in 10.0 mi ESE 8.1 mph - N/A   Clear
11:35 PM 77.0 °F - 66.2 °F 69% 30.13 in 10.0 mi ESE 10.4 mph - N/A   Clear
11:55 PM 77.0 °F - 66.2 °F 69% 30.13 in 10.0 mi ESE 9.2 mph - N/A   Clear